Time,TemperatureF,DewpointF,PressureIn,WindDirection,WindDirectionDegrees,WindSpeedMPH,WindSpeedGustMPH,Humidity,HourlyPrecipIn,Conditions,Clouds,dailyrainin,SoftwareType,DateUTC
2013-04-22 00:02:00,52.0,42.0,30.22,ESE,115,0.0,-999.0,69,-99.99,,,0.00,,2013-04-22 05:02:00,
2013-04-22 00:12:00,52.0,42.0,30.22,ESE,115,0.0,-999.0,69,-99.99,,,0.00,,2013-04-22 05:12:00,
2013-04-22 00:22:00,52.0,43.0,30.22,ESE,115,0.0,-999.0,70,-99.99,,,0.00,,2013-04-22 05:22:00,
2013-04-22 00:32:00,53.0,43.0,30.22,ESE,114,0.0,-999.0,69,-99.99,,,0.00,,2013-04-22 05:32:00,
2013-04-22 00:42:00,53.0,43.0,30.22,ESE,114,0.0,-999.0,69,-99.99,,,0.00,,2013-04-22 05:42:00,
2013-04-22 00:52:00,53.0,42.0,30.22,ESE,117,0.0,-999.0,67,-99.99,,,0.00,,2013-04-22 05:52:00,
2013-04-22 01:02:00,53.0,42.0,30.22,ESE,112,0.0,-999.0,67,-99.99,,,0.00,,2013-04-22 06:02:00,
2013-04-22 01:12:00,53.0,42.0,30.22,ESE,112,0.0,-999.0,67,-99.99,,,0.00,,2013-04-22 06:12:00,
2013-04-22 01:21:00,54.0,43.0,30.21,ESE,113,0.0,-999.0,66,-99.99,,,0.00,,2013-04-22 06:21:00,
2013-04-22 01:32:00,55.0,43.0,30.21,East,98,0.0,-999.0,64,-99.99,,,0.00,,2013-04-22 06:32:00,
2013-04-22 01:42:00,55.0,43.0,30.21,East,98,0.0,-999.0,64,-99.99,,,0.00,,2013-04-22 06:42:00,
2013-04-22 01:52:00,55.0,43.0,30.21,ESE,105,0.0,-999.0,63,-99.99,,,0.00,,2013-04-22 06:52:00,
2013-04-22 02:01:00,56.0,44.0,30.21,ESE,108,0.0,-999.0,63,-99.99,,,0.00,,2013-04-22 07:01:00,
2013-04-22 02:12:00,56.0,44.0,30.21,ESE,108,0.0,-999.0,63,-99.99,,,0.00,,2013-04-22 07:12:00,
2013-04-22 02:21:00,56.0,43.0,30.21,ESE,102,0.0,-999.0,62,-99.99,,,0.00,,2013-04-22 07:21:00,
2013-04-22 02:32:00,56.0,43.0,30.21,ESE,104,0.0,-999.0,62,-99.99,,,0.00,,2013-04-22 07:32:00,
2013-04-22 02:42:00,56.0,43.0,30.21,ESE,104,0.0,-999.0,62,-99.99,,,0.00,,2013-04-22 07:42:00,
2013-04-22 02:52:00,56.0,44.0,30.22,SE,132,0.0,-999.0,63,-99.99,,,0.00,,2013-04-22 07:52:00,
2013-04-22 03:02:00,56.0,43.0,30.21,SE,141,0.0,-999.0,62,-99.99,,,0.00,,2013-04-22 08:02:00,
2013-04-22 03:11:00,56.0,43.0,30.21,SE,141,0.0,-999.0,62,-99.99,,,0.00,,2013-04-22 08:11:00,
2013-04-22 03:22:00,56.0,43.0,30.21,SSE,152,0.0,-999.0,62,-99.99,,,0.00,,2013-04-22 08:22:00,
2013-04-22 03:32:00,56.0,44.0,30.21,ESE,122,0.0,-999.0,63,-99.99,,,0.00,,2013-04-22 08:32:00,
2013-04-22 03:42:00,56.0,44.0,30.21,ESE,122,0.0,-999.0,63,-99.99,,,0.00,,2013-04-22 08:42:00,
2013-04-22 03:53:00,55.0,43.0,30.21,ESE,102,0.0,-999.0,64,-99.99,,,0.00,,2013-04-22 08:53:00,
2013-04-22 04:01:00,55.0,43.0,30.21,ESE,119,0.0,-999.0,65,-99.99,,,0.00,,2013-04-22 09:01:00,
2013-04-22 04:11:00,55.0,43.0,30.21,ESE,119,0.0,-999.0,65,-99.99,,,0.00,,2013-04-22 09:11:00,
2013-04-22 04:21:00,55.0,44.0,30.21,SE,130,0.0,-999.0,66,-99.99,,,0.00,,2013-04-22 09:21:00,
2013-04-22 04:33:00,54.0,43.0,30.22,SE,127,0.0,-999.0,66,-99.99,,,0.00,,2013-04-22 09:33:00,
2013-04-22 04:42:00,54.0,43.0,30.22,SE,127,0.0,-999.0,66,-99.99,,,0.00,,2013-04-22 09:42:00,
2013-04-22 04:52:00,54.0,43.0,30.22,SE,143,0.0,-999.0,67,-99.99,,,0.00,,2013-04-22 09:52:00,
2013-04-22 05:03:00,54.0,43.0,30.22,SE,131,0.0,-999.0,67,-99.99,,,0.00,,2013-04-22 10:03:00,
2013-04-22 05:12:00,54.0,43.0,30.22,SE,131,0.0,-999.0,67,-99.99,,,0.00,,2013-04-22 10:12:00,
2013-04-22 05:22:00,54.0,43.0,30.22,SE,125,0.0,-999.0,66,-99.99,,,0.00,,2013-04-22 10:22:00,
2013-04-22 05:32:00,54.0,43.0,30.22,ESE,117,0.0,-999.0,67,-99.99,,,0.00,,2013-04-22 10:32:00,
2013-04-22 05:42:00,54.0,43.0,30.22,ESE,117,0.0,-999.0,67,-99.99,,,0.00,,2013-04-22 10:42:00,
2013-04-22 05:52:00,54.0,43.0,30.22,ESE,110,0.0,-999.0,67,-99.99,,,0.00,,2013-04-22 10:52:00,
2013-04-22 06:02:00,54.0,43.0,30.22,ESE,110,0.0,-999.0,67,-99.99,,,0.00,,2013-04-22 11:02:00,
2013-04-22 06:12:00,54.0,43.0,30.23,ESE,116,0.0,-999.0,66,-99.99,,,0.00,,2013-04-22 11:12:00,
2013-04-22 06:22:00,54.0,43.0,30.23,ESE,116,0.0,-999.0,66,-99.99,,,0.00,,2013-04-22 11:22:00,
2013-04-22 06:32:00,54.0,43.0,30.24,ESE,113,0.0,-999.0,66,-99.99,,,0.00,,2013-04-22 11:32:00,
2013-04-22 06:42:00,54.0,43.0,30.24,ESE,113,0.0,-999.0,66,-99.99,,,0.00,,2013-04-22 11:42:00,
2013-04-22 06:52:00,54.0,43.0,30.24,ESE,114,0.0,-999.0,67,-99.99,,,0.00,,2013-04-22 11:52:00,
2013-04-22 07:02:00,54.0,43.0,30.24,ESE,107,0.0,-999.0,67,-99.99,,,0.00,,2013-04-22 12:02:00,
2013-04-22 07:12:00,54.0,43.0,30.24,ESE,107,0.0,-999.0,67,-99.99,,,0.00,,2013-04-22 12:12:00,
2013-04-22 07:21:00,55.0,44.0,30.24,ESE,114,0.0,-999.0,66,-99.99,,,0.00,,2013-04-22 12:21:00,
2013-04-22 07:32:00,55.0,43.0,30.24,ESE,119,0.0,-999.0,65,-99.99,,,0.00,,2013-04-22 12:32:00,
2013-04-22 07:42:00,55.0,43.0,30.24,ESE,119,0.0,-999.0,65,-99.99,,,0.00,,2013-04-22 12:42:00,
2013-04-22 07:52:00,56.0,44.0,30.25,ESE,123,0.0,-999.0,65,-99.99,,,0.00,,2013-04-22 12:52:00,
2013-04-22 08:01:00,56.0,44.0,30.25,ESE,122,0.0,-999.0,63,-99.99,,,0.00,,2013-04-22 13:01:00,
2013-04-22 08:11:00,56.0,44.0,30.25,ESE,122,0.0,-999.0,63,-99.99,,,0.00,,2013-04-22 13:11:00,
2013-04-22 08:22:00,58.0,46.0,30.25,SSE,149,0.0,-999.0,65,-99.99,,,0.00,,2013-04-22 13:22:00,
2013-04-22 08:32:00,58.0,45.0,30.25,ESE,114,0.0,-999.0,61,-99.99,,,0.00,,2013-04-22 13:32:00,
2013-04-22 08:41:00,58.0,45.0,30.25,ESE,114,0.0,-999.0,61,-99.99,,,0.00,,2013-04-22 13:41:00,
2013-04-22 08:53:00,59.0,47.0,30.25,ESE,119,0.0,-999.0,64,-99.99,,,0.00,,2013-04-22 13:53:00,
2013-04-22 09:02:00,59.0,46.0,30.25,ESE,106,0.0,-999.0,63,-99.99,,,0.00,,2013-04-22 14:02:00,
2013-04-22 09:11:00,60.0,46.0,30.25,East,89,0.0,-999.0,60,-99.99,,,0.00,,2013-04-22 14:11:00,
2013-04-22 09:21:00,60.0,46.0,30.25,East,89,0.0,-999.0,60,-99.99,,,0.00,,2013-04-22 14:21:00,
2013-04-22 09:33:00,61.0,48.0,30.24,ESE,116,0.0,-999.0,62,-99.99,,,0.00,,2013-04-22 14:33:00,
2013-04-22 09:42:00,61.0,48.0,30.24,ESE,116,0.0,-999.0,62,-99.99,,,0.00,,2013-04-22 14:42:00,
2013-04-22 09:52:00,61.0,48.0,30.24,East,99,0.0,-999.0,63,-99.99,,,0.00,,2013-04-22 14:52:00,
2013-04-22 10:01:00,62.0,47.0,30.24,SE,128,0.0,-999.0,59,-99.99,,,0.00,,2013-04-22 15:01:00,
2013-04-22 10:11:00,62.0,47.0,30.24,SE,128,0.0,-999.0,59,-99.99,,,0.00,,2013-04-22 15:11:00,
2013-04-22 10:22:00,62.0,48.0,30.24,SE,132,0.0,-999.0,60,-99.99,,,0.00,,2013-04-22 15:22:00,
2013-04-22 10:33:00,63.0,48.0,30.24,SE,138,0.0,-999.0,57,-99.99,,,0.00,,2013-04-22 15:33:00,
2013-04-22 10:43:00,63.0,48.0,30.24,SE,138,0.0,-999.0,57,-99.99,,,0.00,,2013-04-22 15:43:00,
2013-04-22 10:53:00,64.0,48.0,30.24,SSE,152,0.0,-999.0,57,-99.99,,,0.00,,2013-04-22 15:53:00,
2013-04-22 11:02:00,65.0,49.0,30.24,SE,137,0.0,-999.0,57,-99.99,,,0.00,,2013-04-22 16:02:00,
2013-04-22 11:12:00,65.0,49.0,30.24,SE,137,0.0,-999.0,57,-99.99,,,0.00,,2013-04-22 16:12:00,
2013-04-22 11:23:00,65.0,49.0,30.24,SE,141,0.0,-999.0,57,-99.99,,,0.00,,2013-04-22 16:23:00,
2013-04-22 11:33:00,66.0,49.0,30.23,East,83,0.0,-999.0,54,-99.99,,,0.00,,2013-04-22 16:33:00,
2013-04-22 11:42:00,66.0,49.0,30.23,East,83,0.0,-999.0,54,-99.99,,,0.00,,2013-04-22 16:42:00,
2013-04-22 11:52:00,67.0,50.0,30.22,East,85,0.0,-999.0,54,-99.99,,,0.00,,2013-04-22 16:52:00,
2013-04-22 12:02:00,67.0,49.0,30.21,ESE,122,0.0,-999.0,52,-99.99,,,0.00,,2013-04-22 17:02:00,
2013-04-22 12:12:00,67.0,49.0,30.21,ESE,122,0.0,-999.0,52,-99.99,,,0.00,,2013-04-22 17:12:00,
2013-04-22 12:22:00,68.0,49.0,30.20,East,97,0.0,-999.0,50,-99.99,,,0.00,,2013-04-22 17:22:00,
2013-04-22 12:32:00,69.0,50.0,30.19,ESE,108,0.0,-999.0,50,-99.99,,,0.00,,2013-04-22 17:32:00,
2013-04-22 12:42:00,69.0,50.0,30.19,ESE,108,0.0,-999.0,50,-99.99,,,0.00,,2013-04-22 17:42:00,
2013-04-22 12:52:00,69.0,50.0,30.18,ESE,116,0.0,-999.0,51,-99.99,,,0.00,,2013-04-22 17:52:00,
2013-04-22 13:01:00,69.0,48.0,30.17,SSE,149,0.0,-999.0,47,-99.99,,,0.00,,2013-04-22 18:01:00,
2013-04-22 13:12:00,69.0,48.0,30.17,SSE,149,0.0,-999.0,47,-99.99,,,0.00,,2013-04-22 18:12:00,
2013-04-22 13:21:00,68.0,49.0,30.16,South,172,0.0,-999.0,50,-99.99,,,0.00,,2013-04-22 18:21:00,
2013-04-22 13:32:00,69.0,47.0,30.16,SSE,156,0.0,-999.0,46,-99.99,,,0.00,,2013-04-22 18:32:00,
2013-04-22 13:42:00,69.0,47.0,30.16,SSE,156,0.0,-999.0,46,-99.99,,,0.00,,2013-04-22 18:42:00,
2013-04-22 13:52:00,70.0,48.0,30.14,SE,140,0.0,-999.0,46,-99.99,,,0.00,,2013-04-22 18:52:00,
2013-04-22 14:01:00,70.0,48.0,30.14,SSE,156,0.0,-999.0,46,-99.99,,,0.00,,2013-04-22 19:01:00,
2013-04-22 14:12:00,70.0,48.0,30.14,SSE,156,0.0,-999.0,46,-99.99,,,0.00,,2013-04-22 19:12:00,
2013-04-22 14:21:00,70.0,46.0,30.13,SE,130,0.0,-999.0,43,-99.99,,,0.00,,2013-04-22 19:21:00,
2013-04-22 14:32:00,71.0,49.0,30.12,ESE,106,0.0,-999.0,46,-99.99,,,0.00,,2013-04-22 19:32:00,
2013-04-22 14:42:00,71.0,49.0,30.12,ESE,106,0.0,-999.0,46,-99.99,,,0.00,,2013-04-22 19:42:00,
2013-04-22 14:53:00,71.0,49.0,30.12,SSE,160,0.0,-999.0,45,-99.99,,,0.00,,2013-04-22 19:53:00,
2013-04-22 15:02:00,71.0,50.0,30.11,SSW,198,0.0,-999.0,48,-99.99,,,0.00,,2013-04-22 20:02:00,
2013-04-22 15:11:00,71.0,50.0,30.11,SSW,198,0.0,-999.0,48,-99.99,,,0.00,,2013-04-22 20:11:00,
2013-04-22 15:22:00,71.0,49.0,30.11,East,98,0.0,-999.0,46,-99.99,,,0.00,,2013-04-22 20:22:00,
2013-04-22 15:32:00,72.0,48.0,30.09,SE,128,0.0,-999.0,43,-99.99,,,0.00,,2013-04-22 20:32:00,
2013-04-22 15:42:00,72.0,48.0,30.09,SE,128,0.0,-999.0,43,-99.99,,,0.00,,2013-04-22 20:42:00,
2013-04-22 15:51:00,72.0,49.0,30.09,SE,125,0.0,-999.0,44,-99.99,,,0.00,,2013-04-22 20:51:00,
2013-04-22 16:02:00,72.0,48.0,30.08,ESE,107,0.0,-999.0,43,-99.99,,,0.00,,2013-04-22 21:02:00,
2013-04-22 16:11:00,72.0,48.0,30.08,ESE,107,0.0,-999.0,43,-99.99,,,0.00,,2013-04-22 21:11:00,
2013-04-22 16:21:00,72.0,50.0,30.08,SSW,203,0.0,-999.0,46,-99.99,,,0.00,,2013-04-22 21:21:00,
2013-04-22 16:32:00,72.0,50.0,30.08,SSE,158,0.0,-999.0,46,-99.99,,,0.00,,2013-04-22 21:32:00,
2013-04-22 16:42:00,72.0,50.0,30.08,SSE,158,0.0,-999.0,46,-99.99,,,0.00,,2013-04-22 21:42:00,
2013-04-22 16:53:00,70.0,49.0,30.08,SE,139,0.0,-999.0,48,-99.99,,,0.00,,2013-04-22 21:53:00,
2013-04-22 17:02:00,71.0,50.0,30.07,SE,140,0.0,-999.0,47,-99.99,,,0.00,,2013-04-22 22:02:00,
2013-04-22 17:12:00,71.0,50.0,30.07,SE,140,0.0,-999.0,47,-99.99,,,0.00,,2013-04-22 22:12:00,
2013-04-22 17:22:00,71.0,51.0,30.07,South,172,0.0,-999.0,49,-99.99,,,0.00,,2013-04-22 22:22:00,
2013-04-22 17:33:00,71.0,49.0,30.07,ESE,108,0.0,-999.0,46,-99.99,,,0.00,,2013-04-22 22:33:00,
2013-04-22 17:42:00,71.0,49.0,30.07,ESE,108,0.0,-999.0,46,-99.99,,,0.00,,2013-04-22 22:42:00,
2013-04-22 17:52:00,71.0,51.0,30.06,ESE,110,0.0,-999.0,49,-99.99,,,0.00,,2013-04-22 22:52:00,
2013-04-22 18:02:00,71.0,51.0,30.07,SSE,156,0.0,-999.0,50,-99.99,,,0.00,,2013-04-22 23:02:00,
2013-04-22 18:11:00,70.0,50.0,30.07,ESE,113,0.0,-999.0,50,-99.99,,,0.00,,2013-04-22 23:11:00,
2013-04-22 18:21:00,70.0,50.0,30.07,ESE,113,0.0,-999.0,50,-99.99,,,0.00,,2013-04-22 23:21:00,
2013-04-22 18:32:00,70.0,50.0,30.06,SE,126,0.0,-999.0,50,-99.99,,,0.00,,2013-04-22 23:32:00,
2013-04-22 18:42:00,70.0,50.0,30.06,SE,126,0.0,-999.0,50,-99.99,,,0.00,,2013-04-22 23:42:00,
2013-04-22 18:52:00,69.0,50.0,30.06,SE,130,0.0,-999.0,51,-99.99,,,0.00,,2013-04-22 23:52:00,
2013-04-22 19:02:00,69.0,51.0,30.06,SE,133,0.0,-999.0,52,-99.99,,,0.00,,2013-04-23 00:02:00,
2013-04-22 19:12:00,69.0,51.0,30.06,SE,133,0.0,-999.0,52,-99.99,,,0.00,,2013-04-23 00:12:00,
2013-04-22 19:21:00,68.0,50.0,30.06,SE,140,0.0,-999.0,53,-99.99,,,0.00,,2013-04-23 00:21:00,
2013-04-22 19:32:00,67.0,50.0,30.06,SE,131,0.0,-999.0,55,-99.99,,,0.00,,2013-04-23 00:32:00,
2013-04-22 19:42:00,67.0,50.0,30.06,SE,131,0.0,-999.0,55,-99.99,,,0.00,,2013-04-23 00:42:00,
2013-04-22 19:52:00,65.0,50.0,30.06,SE,130,0.0,-999.0,59,-99.99,,,0.00,,2013-04-23 00:52:00,
2013-04-22 20:01:00,62.0,51.0,30.07,SE,130,0.0,-999.0,66,-99.99,,,0.00,,2013-04-23 01:01:00,
2013-04-22 20:11:00,62.0,51.0,30.07,SE,130,0.0,-999.0,66,-99.99,,,0.00,,2013-04-23 01:11:00,
2013-04-22 20:21:00,61.0,52.0,30.08,SE,130,0.0,-999.0,71,-99.99,,,0.00,,2013-04-23 01:21:00,
2013-04-22 20:32:00,59.0,51.0,30.08,SE,130,0.0,-999.0,74,-99.99,,,0.00,,2013-04-23 01:32:00,
2013-04-22 20:42:00,59.0,51.0,30.08,SE,130,0.0,-999.0,74,-99.99,,,0.00,,2013-04-23 01:42:00,
2013-04-22 20:52:00,58.0,50.0,30.09,SE,130,0.0,-999.0,76,-99.99,,,0.00,,2013-04-23 01:52:00,
2013-04-22 21:01:00,57.0,50.0,30.09,SE,130,0.0,-999.0,77,-99.99,,,0.00,,2013-04-23 02:01:00,
2013-04-22 21:12:00,57.0,50.0,30.09,SE,130,0.0,-999.0,77,-99.99,,,0.00,,2013-04-23 02:12:00,
2013-04-22 21:21:00,57.0,50.0,30.09,SE,130,0.0,-999.0,78,-99.99,,,0.00,,2013-04-23 02:21:00,
2013-04-22 21:32:00,57.0,50.0,30.09,SE,130,0.0,-999.0,78,-99.99,,,0.00,,2013-04-23 02:32:00,
2013-04-22 21:42:00,57.0,50.0,30.09,SE,130,0.0,-999.0,78,-99.99,,,0.00,,2013-04-23 02:42:00,
2013-04-22 21:52:00,57.0,50.0,30.10,SE,130,0.0,-999.0,78,-99.99,,,0.00,,2013-04-23 02:52:00,
2013-04-22 22:01:00,57.0,51.0,30.10,SE,130,0.0,-999.0,79,-99.99,,,0.00,,2013-04-23 03:01:00,
2013-04-22 22:11:00,57.0,51.0,30.10,SE,130,0.0,-999.0,79,-99.99,,,0.00,,2013-04-23 03:11:00,
2013-04-22 22:21:00,56.0,50.0,30.11,SE,130,0.0,-999.0,81,-99.99,,,0.00,,2013-04-23 03:21:00,
2013-04-22 22:33:00,56.0,50.0,30.10,SE,130,0.0,-999.0,81,-99.99,,,0.00,,2013-04-23 03:33:00,
2013-04-22 22:43:00,56.0,50.0,30.10,SE,130,0.0,-999.0,81,-99.99,,,0.00,,2013-04-23 03:43:00,
2013-04-22 22:53:00,55.0,50.0,30.10,SE,130,0.0,-999.0,83,-99.99,,,0.00,,2013-04-23 03:53:00,
2013-04-22 23:03:00,55.0,50.0,30.09,SE,130,0.0,-999.0,83,-99.99,,,0.00,,2013-04-23 04:03:00,
2013-04-22 23:12:00,55.0,50.0,30.09,SE,130,0.0,-999.0,83,-99.99,,,0.00,,2013-04-23 04:12:00,
2013-04-22 23:23:00,56.0,50.0,30.09,ESE,123,0.0,-999.0,81,-99.99,,,0.00,,2013-04-23 04:23:00,
2013-04-22 23:33:00,57.0,51.0,30.09,SE,129,0.0,-999.0,79,-99.99,,,0.00,,2013-04-23 04:33:00,
2013-04-22 23:43:00,57.0,51.0,30.09,SE,129,0.0,-999.0,79,-99.99,,,0.00,,2013-04-23 04:43:00,
2013-04-22 23:53:00,57.0,50.0,30.09,SE,127,0.0,-999.0,78,-99.99,,,0.00,,2013-04-23 04:53:00,